Showing default

SECOR 5 (EGRS 5), 1506

Orbit data source: Space-Track

SECOR 5 (EGRS 5), 1506 is an American payload satellite in LEO that was launched on Tue, 10 Aug 1965 UTC via an SCOUT B launch vehicle from the Wallops Island (WLPIS). Payload-class satellites include a variety of spacecraft equipped with specific instruments for various scientific and technological missions. These include communications satellites like Starlink; space stations such as the ISS; scientific satellites like the Hubble; Earth observation satellites from companies like Planet Labs, Umbra, and HawkEye 360; GPS; miniature CubeSats for education and research; and military/defense satellites.

Loading next visibility...
Identifier
1506, 1965-063A
Orbit
LEO
Country
Flag of USUS
Related business
Manufacturer
Cubic
Mission
Spacecraft
Bus & Motor
NRL 20", Unknown motor
Mass
18 kg wet, 18 kg dry
Launch date (UTC)
1965-08-10 (60 years ago)
Launch vehicle
SCOUT B
Launch site
Wallops Island (WLPIS)
Object type
Payload
Rocket body
Debris
Shape & HBR
Unknown
Radar Cross Section
Medium (>0.1 m² and <1 m²)

Expand to show TLE details & history
Last TLE update: 19 hours ago

TLE from 19 hours ago
0 SECOR 5 (EGRS 5)
1 01506U 65063A   26036.40470748  .00000006  00000-0  28508-3 0  9995
2 01506  69.2333  87.4544 0789571 267.9216  98.6714 11.78686891602729
Epoch: 2026-02-05T09:42Z
TLE epoch observation values (Epoch: 2026-02-05T09:42:46.726Z)
Latitude
14.33434°
Longitude
171.73702°
Altitude
1,924.762 km
Speed
6.869 km/s
True Right ascension
06h 11m 57s
True Declination
14° 15' 49"
Sunlit
Object was in full shadow at epoch
Visualization orbit readout
Latitude
Unknown
Longitude
Unknown
Altitude
Unknown
Speed
Unknown
Apparent Right ascension
Unknown
Apparent Declination
Unknown
Sunlit
N/A
Visualization observer readout
Local Sidereal Time
07:16:47
Azimuth
Unknown
Elevation
Unknown
Doppler factor
Unknown
Orbital elements
Apogee altitude
2,419.856 km
Perigee altitude
1,132.197 km
Semi-major axis
8,154.164 km
Eccentricity
0.07896
Inclination
69.2333°
RAAN
87.4544°
Arg. of periapsis
267.9216°
True anomaly
107.45017°
Mean anomaly
98.6714°
Eccentric anomaly
103.07797°
Mean motion
2.94764 °/min
Orbital period
122.13 mins
BSTAR
0.00028508
Loading maneuver chart data...
Computing Atmospheric mass density...
Loading historical data...
Loading historical data...
Loading historical data...
Loading historical data...
Loading historical data...
Loading historical data...
Loading historical data...

Documentation

Showing up to 5 results
|